User: anonymous   Login
Location: Unspecified
(0.0000°N, 0.0000°E)
Time: 08:08:25
(UTC+02:00)
Language:

ADEOS II - Orbit

View from above orbital plane
View from above orbital plane
View from above satellite
View from above satellite

Ground track
Ground track

The orbit data is extracted from the following two-line orbital elements,

1 27597U 02056A   15086.99513262  .00000410  00000-0  18527-3 0  9991
2 27597 098.2844 084.7281 0001322 133.7453 238.3443 14.27038228639575
Epoch (UTC): 27 March 2015 23:52:59
Eccentricity: 0.0001322
inclination: 98.2844°
perigee height: 801 km
apogee height: 802 km
right ascension of ascending node: 84.7281°
argument of perigee: 133.7453°
revolutions per day: 14.27038228
mean anomaly at epoch: 238.3443°
orbit number at epoch: 63957

The dashed part of the orbit path shows where the satellite is in the earth's shadow,  

DLR